SL-14 R/B, 23793

Orbit data source: Space-Track

SL-14 R/B, 23793 is space debris in LEO originally from a launch on Mon, 19 Feb 1996 UTC launched from the Plesetsk Missile And Space Complex (PKMTR). Debris objects in space refer to the collection of defunct objects orbiting the Earth. Examples of debris include non-operational satellites, rocket bodies, and fragments generated from explosions, collisions, or faulty payload assembly.

Loading next visibility...
Identifier
23793, 1996-009G
Orbit
LEO
Country
Flag of CISCIS
Related business
Manufacturer
Yuzhnoe
Mission
Spacecraft
Bus & Motor
S5M, Unknown motor
Mass
1,600 kg wet, 1,600 kg dry
Launch date (UTC)
1996-02-19 (30 years ago)
Launch vehicle
Unknown
Launch site
Plesetsk Missile And Space Complex (PKMTR)
Object type
Payload
Rocket body
Debris
Shape & HBR
Cyl, 1.4 m
Radar Cross Section
7.351 m², Large (>1 m²)

Expand to show TLE details & history
Last TLE update: 6 hours ago

TLE from 6 hours ago
0 SL-14 R/B
1 23793U 96009G   26124.60257916  .00000012  00000-0  90552-5 0  9998
2 23793  82.5685  76.0825 0046135  67.4878 105.2210 12.55090909383888
Epoch: 2026-05-04T14:27Z
TLE epoch observation values (Epoch: 2026-05-04T14:27:42.839Z)
Latitude
6.65473°
Longitude
175.7969°
Altitude
1,455.008 km
Speed
7.131 km/s
True Right ascension
17h 00m 51s
True Declination
6° 37' 08"
Sunlit
Object was in full shadow at epoch
Visualization orbit readout
Latitude
Unknown
Longitude
Unknown
Altitude
Unknown
Speed
Unknown
Apparent Right ascension
Unknown
Apparent Declination
Unknown
Sunlit
N/A
Visualization observer readout
Local Sidereal Time
03:48:14
Azimuth
Unknown
Elevation
Unknown
Doppler factor
Unknown
Orbital elements
Apogee altitude
1,476.676 km
Perigee altitude
1,404.532 km
Semi-major axis
7,818.741 km
Eccentricity
0.00461
Inclination
82.5685°
RAAN
76.0825°
Arg. of periapsis
67.4878°
True anomaly
105.73034°
Mean anomaly
105.221°
Eccentric anomaly
105.47575°
Mean motion
3.13934 °/min
Orbital period
114.67 mins
BSTAR
0.0000090552
Loading maneuver chart data...
Computing Atmospheric mass density...
Loading historical data...
Loading historical data...
Loading historical data...
Loading historical data...
Loading historical data...
Loading historical data...
Loading historical data...

Documentation

Showing up to 5 results
|